TOURFACTS.DK  
Stats and Facts from Tour de France.

Tour de France 2018 starts in 315 days
  Riders   Stages   Teams   Summits   Yearly  


 
Search by year

 2017 - St. 21:  14824 starters.
  5131 different riders.
  634 teams.
  2232 stages.
  454 restdays.
  439589.60 km.
  5653 abandonnees.


Top 3
Christopher Froome86:20:55
Rigoberto Uran86:21:49
Romain Bardet86:23:15
Warren Barguil169 pt.
Primoz Roglic80 pt.
Thomas De Gendt64 pt.
Michael Matthews359 pt.
André Greipel234 pt.
Edvald Boasson Hagen220 pt.
Simon Yates86:27:09
Louis Meintjes86:29:15
Emanuel Buchmann86:54:16
Facts from Tour de France 1938
  |   Stages.  |   Stage winners.  |   Days in yellow  |   Average speed.  |   Route.  |   Teams.  |   All riders.  |   Rookies.  |   Withdrawls.  |  

  |   GC.  |   Polka  |   Green  |   White  |   Summits. (In tour)  |   Summits. (Points)  |   Miscellaneous.  |  

Stage 15 on 21 - 07 - 1938
         Owning:    Gino Bartali    
Pick a stage:  1 2 3 4a 4b 4c 5 6a 6b 7 8 9 10a 10b 10c 11 12 13 14 15 16 17a 17b 18 19 20a 20b 20c 21
  BriançonAix-les-Bains | Dist: 311.00 km.
Cat: Col du GalibierITAMario Vicini
10 points
 
Cat: Col de l'IseranBELFélicien Vervaecke
10 points
 

Average speed for all riders in stage:  27,359 km./hr.
    Place:Name:Team:Time:Km/h:
BELMarcel KintBELBelgium10:52:24  +  00:00:00=28,602 
BELJules LowieBELBelgium10:52:36  +  00:00:12=28,593 
ITAGino BartaliITAItaly10:52:36  +  00:00:12=28,593 
4 FRAVictor CossonFRAFrance10:52:36  +  00:00:12=28,593 
5 BELEdward VissersBELBelgium10:52:36  +  00:00:12=28,593 
6 BELSylvère MaesBELBelgium10:52:36  +  00:00:12=28,593 
7 FRAJean FontenayFRACadets10:52:36  +  00:00:12=28,593 
8 BELFélicien VervaeckeBELBelgium10:52:36  +  00:00:12=28,593 
9 FRAAntonin MagneFRAFrance11:08:07  +  00:15:43=27,929 
10 BELFrançois NeuvilleBELBelgium11:08:07  +  00:15:43=27,929 
11 FRAPierre GallienFRAFrance11:17:30  +  00:25:06=27,542 
12 ITAMario ViciniITAItaly11:17:30  +  00:25:06=27,542 
13 FRARobert TanneveauFRACadets11:17:30  +  00:25:06=27,542 
14 ITANello TroggiITAItaly11:17:30  +  00:25:06=27,542 
15 FRAJean FréchautFRAFrance11:17:30  +  00:25:06=27,542 
16 FRAPierre JaminetFRAFrance11:17:30  +  00:25:06=27,542 
17 FRAJean-Marie GoasmatFRAFrance11:17:30  +  00:25:06=27,542 
18 ITAGiuseppe MartanoITAItaly11:17:30  +  00:25:06=27,542 
19 BELAlbertin DisseauxBELBelgium11:17:30  +  00:25:06=27,542 
20 FRAMathias ClemensLUXLuxembourg11:17:30  +  00:25:06=27,542 
21 SUIPaul EgliCHESwitzerland11:23:48  +  00:31:24=27,289 
22 GERReinhold WendelDEUGermany11:23:48  +  00:31:24=27,289 
23 FRAGeorges NaisseFRAFrance11:23:48  +  00:31:24=27,289 
24 FRAFabien GalateauFRACadets11:23:48  +  00:31:24=27,289 
25 LUXFrançois NeuensLUXLuxembourg11:23:48  +  00:31:24=27,289 
26 FRAAlbert BourlonFRABluets11:23:48  +  00:31:24=27,289 
27 ITAGiordano CotturITAItaly11:23:48  +  00:31:24=27,289 
28 ITADante GianelloFRABluets11:23:48  +  00:31:24=27,289 
29 FRALucien Le GuevelFRABluets11:23:48  +  00:31:24=27,289 
30 BELConstant LauwersBELBelgium11:23:48  +  00:31:24=27,289 
31 LUXArsène MerschLUXLuxembourg11:23:48  +  00:31:24=27,289 
32 FRAYvan MarieFRACadets11:23:48  +  00:31:24=27,289 
33 FRAAndré LeducqFRACadets11:23:48  +  00:31:24=27,289 
34 ITAVasco BergamaschiITAItaly11:23:48  +  00:31:24=27,289 
35 ITAOreste BernardoniFRABluets11:23:48  +  00:31:24=27,289 
36 FRARobert OubronFRACadets11:23:48  +  00:31:24=27,289 
37 ITALuigi IntrozziITAItaly11:23:48  +  00:31:24=27,289 
38 ESPMariano CañardoESPSpain11:23:48  +  00:31:24=27,289 
39 ESPJulián BerrenderoESPSpain11:23:48  +  00:31:24=27,289 
40 FRACamille LeroyFRABluets11:23:48  +  00:31:24=27,289 
41 SUIRaymond LouviotFRACadets11:23:48  +  00:31:24=27,289 
42 FRARaymond PassatFRACadets11:23:48  +  00:31:24=27,289 
43 ESPRafael RamosESPSpain11:23:48  +  00:31:24=27,289 
44 GEROtto WeckerlingDEUGermany11:23:48  +  00:31:24=27,289 
45 GERJosef ArentsDEUGermany11:26:25  +  00:34:01=27,185 
46 LUXJean MajerusLUXLuxembourg11:41:03  +  00:48:39=26,617 
47 ITAAldo BiniITAItaly11:41:03  +  00:48:39=26,617 
48 ITAGlauco ServadeiITAItaly11:41:03  +  00:48:39=26,617 
49 GERHerbert HauswaldDEUGermany11:41:03  +  00:48:39=26,617 
50 ITAEnrico MolloITAItaly11:41:03  +  00:48:39=26,617 
51 BELEmile Masson jr.BELBelgium11:41:03  +  00:48:39=26,617 
52 BELRene WalschotBELBelgium11:41:03  +  00:48:39=26,617 
53 NEDAntoon Van SchendelNLDHolland11:49:44  +  00:57:20=26,292 
54 NEDJanus HellemonsNLDHolland11:49:44  +  00:57:20=26,292 
55 NEDTheo MiddelkampNLDHolland11:49:44  +  00:57:20=26,292 
56 SUIBruno CariniFRACadets12:08:30  +  01:16:06=25,614 

Withdrawls: 1
 
Rider
Team
Reason
70  FRAPierre ClemensLUXLuxembourgDid not finish

Todays birthdays.

1888  Alfred Vaidis
1940  Sandro Cervellini
1940  Romano Piancastelli
1942  Eraldo Bocci
1947  Roger De Vlaeminck
1968  Antonio Dias
1969  Jans Koerts
1972  Francesco Secchiari
1988  Romain Hardy